TimeWET,TemperatureF,Dew PointF,Humidity,Sea Level PressureIn,VisibilityMPH,Wind Direction,Wind SpeedMPH,Gust SpeedMPH,PrecipitationIn,Events,Conditions,WindDirDegrees,DateUTC
6:00 AM,61,60,94,,9,South,4.6,,,,Mostly Cloudy,180,2012-10-06 06:00:00
6:00 AM,60.8,59.0,94,30.27,6.2,South,4.6,-,N/A,,Partly Cloudy,180,2012-10-06 06:00:00
7:00 AM,60.8,53.6,77,30.27,6.2,NW,4.6,-,N/A,,Partly Cloudy,320,2012-10-06 07:00:00
8:00 AM,62.6,53.6,72,30.27,6.2,South,4.6,-,N/A,,Scattered Clouds,180,2012-10-06 08:00:00
9:00 AM,66,59,71,,12,Calm,Calm,,,,Partly Cloudy,,2012-10-06 09:00:00
9:00 AM,66.2,59.0,78,30.30,6.2,Calm,Calm,-,N/A,,Scattered Clouds,0,2012-10-06 09:00:00
11:00 AM,77.0,57.2,50,30.27,6.2,WSW,4.6,-,N/A,,Partly Cloudy,240,2012-10-06 11:00:00
12:00 PM,77,50,28,,12,SW,4.6,,,,Scattered Clouds,220,2012-10-06 12:00:00
12:00 PM,77.0,50.0,39,30.27,6.2,South,4.6,-,N/A,,Partly Cloudy,180,2012-10-06 12:00:00
1:00 PM,78.8,50.0,36,30.24,6.2,WSW,6.9,-,N/A,,Partly Cloudy,240,2012-10-06 13:00:00
2:00 PM,82.4,48.2,30,30.21,6.2,WSW,6.9,-,N/A,,Partly Cloudy,240,2012-10-06 14:00:00
3:00 PM,83,47,19,,12,SW,6.9,,,,Partly Cloudy,220,2012-10-06 15:00:00
3:00 PM,82.4,48.2,30,30.21,6.2,SW,6.9,-,N/A,,Scattered Clouds,220,2012-10-06 15:00:00
4:00 PM,82.4,48.2,30,30.21,6.2,WSW,6.9,-,N/A,,Partly Cloudy,240,2012-10-06 16:00:00
4:10 PM,80.6,48.2,32,30.21,6.2,West,6.9,-,N/A,Thunderstorm,Thunderstorm,260,2012-10-06 16:10:00
5:00 PM,73.4,46.4,38,30.24,6.2,WNW,9.2,-,N/A,Rain-Thunderstorm,Light Thunderstorms and Rain,300,2012-10-06 17:00:00
6:00 PM,76,45,23,,9,SSE,9.2,,,Thunderstorm,Thunderstorm,160,2012-10-06 18:00:00
6:00 PM,75.2,44.6,34,30.27,6.2,SSE,9.2,-,N/A,Thunderstorm,Thunderstorm,160,2012-10-06 18:00:00
6:19 PM,73.4,50.0,44,30.27,6.2,SSE,16.1,-,N/A,,Partly Cloudy,160,2012-10-06 18:19:00
9:00 PM,69,49,39,,9,WNW,6.9,,,,Scattered Clouds,300,2012-10-06 21:00:00
9:00 PM,69.8,50.0,49,30.30,6.2,NW,6.9,-,N/A,,Partly Cloudy,310,2012-10-06 21:00:00